This is the latest recevied weather packets stored in our database for station/object WB8SKP-WX. If no packets are shown the sender has not sent any weather packets the latest 10 day(s).
| Time | Temp. | Humidity | Pressure | Rain* | Wind** | Luminosity | Snow |
|---|---|---|---|---|---|---|---|
| 1777773470 | 8.33° C | 91% | 1000.6 hPa | 0 mm | - | - | - |
| 1777772271 | 8.89° C | 85% | 1000.4 hPa | 0 mm | - | - | - |
| 1777771070 | 10° C | 80% | 1000.2 hPa | 0 mm | - | - | - |
| 1777769840 | 10.56° C | 74% | 1000 hPa | 0 mm | - | - | - |
| 1777768640 | 11.11° C | 75% | 1000 hPa | 0 mm | - | - | - |
| 1777767410 | 12.22° C | 68% | 999.7 hPa | 0 mm | - | - | - |
| 1777766210 | 13.89° C | 69% | 999.4 hPa | 0 mm | - | - | - |
| 1777764980 | 13.89° C | 68% | 999.3 hPa | 0 mm | - | - | - |
| 1777763780 | 13.89° C | 67% | 999.2 hPa | 0 mm | - | - | - |
| 1777762580 | 13.89° C | 66% | 999.2 hPa | 0 mm | - | - | - |
| 1777761350 | 13.89° C | 66% | 999 hPa | 0 mm | - | - | - |
| 1777760150 | 13.89° C | 66% | 998.9 hPa | 0 mm | - | - | - |
| 1777758950 | 14.44° C | 69% | 998.6 hPa | 0 mm | - | - | - |
| 1777757720 | 14.44° C | 68% | 998.4 hPa | 0 mm | - | - | - |
| 1777756520 | 14.44° C | 65% | 998.2 hPa | 0 mm | - | - | - |
| 1777755290 | 14.44° C | 69% | 997.8 hPa | 0 mm | - | - | - |
| 1777754090 | 13.89° C | 72% | 997.8 hPa | 0 mm | - | - | - |
| 1777752890 | 13.33° C | 74% | 997.7 hPa | 0 mm | - | - | - |
| 1777751660 | 14.44° C | 76% | 996.9 hPa | 0 mm | - | - | - |
| 1777750460 | 13.89° C | 70% | 997.4 hPa | 0 mm | - | - | - |
| 1777749260 | 15° C | 64% | 997.1 hPa | 0 mm | - | - | - |
| 1777748030 | 15.56° C | 59% | 997.5 hPa | 0 mm | - | - | - |
| 1777746830 | 17.78° C | 46% | 996.7 hPa | 0 mm | - | - | - |
| 1777745600 | 17.22° C | 47% | 997.4 hPa | 0 mm | - | - | - |
| 1777744370 | 17.22° C | 45% | 997.2 hPa | 0 mm | - | - | - |
* Rain latest hour (hover to see other rain measurements)
** Current wind speed in m/s (hover to see current wind gust speed)